SCP
0 0 0 0 0 0 0 0 0 0 0 0 0 0 0 0 -0 0 0 0 0 0 0 0 0 0 0 0 0 0 0 0 0 0 0 0 0 0 0 0 0 0 0 0
0 0 0 0 0 0 0 0 0 0 0 0 0 0 0 0 0 0 0 0 0 0 0 0 0 0 0 0 0 0 0 0 0 0 0 0 0 0 0 0 0 0 0 0
0 0 0 0 0 0 0 0 0 0 0 0 0 -0 0 0 0 0 0 0 0 0 0 0 0 0 0 0 0 0 0 0 0 0 0 0 0 0 0 0 0 0 0 0
0 0 0 0 0 0 0 0 0 0 0 0 0 -0 0 0 0 0 0 0 0 0 0 0 0 0 0 0 0 0 0 0 0 0 0 0 0 0 0 0 0 0 0 0
0 0 0 0 0 0 0 0 0 0 0 0 0 0 0 0 0 0 0 0 0 0 0 0 0 0 0 0 0 0 0 0 0 0 0 0 0 0 0 0 0 0 0 0
0 0 0 0 0 0 0 0 0 0 0 0 0 0 -0 0 0 0 0 0 0 0 0 0 0 0 0 0 0 0 0 0 0 0 0 0 0 0 0 0 0 0 0 0
0 0 0 0 0 0 0 0 0 0 0 0 0 0 0 0 0 0 0 0 0 0 0 0 0 -0 0 0 0 0 0 0 0 0 0 0 0 0 0 0 0 0 0 0
0 0 0 0 0 0 0 0 0 0 0 0 0 0 0 0 0 0 0 0 0 0 0 0 0 0 0 0 0 0 0 0 0 0 0 0 0 0 0 0 0 0 0 0
0 0 0 0 0 0 0 0 0 0 0 0 0 0 0 0 0 0 0 0 0 0 0 0 0 0 0 0 0 0 0 0 0 0 0 0 0 0 0 0 0 0 0 0
0 0 0 0 0 0 0 0 0 0 0 0 0 0 0 0 0 0 0 0 0 0 0 -0 -0 -0 0 0 0 0 0 0 0 0 0 0 0 0 0 0 0 0 0 0
0 0 0 0 0 0 0 0 0 0 0 0 0 0 0 0 0 0 0 0 0 0 0 -0 -0 -0 -0 0 0 0 0 0 0 0 0 0 0 0 0 0 0 0 0 0
0 0 0 0 0 0 0 0 0 0 0 0 0 0 0 0 0 0 0 0 0 0 0 0 -0 -0 -0 0 0 0 0 0 0 0 0 0 0 0 0 0 0 0 0 0
0 0 0 0 0 0 0 0 0 0 0 0 0 0 0 0 0 0 0 0 0 0 0 0 0 0 0 0 0 0 0 0 0 0 0 0 0 0 0 0 0 0 0 0
0 0 0 0 0 0 0 0 0 0 0 0 0 0 0 0 0 0 0 0 -0 -0 -0 -0 0 0 -0 0 0 0 0 0 0 0 0 0 0 0 0 0 0 0 0 0
0 0 0 0 0 0 0 0 0 0 0 0 0 0 0 0 0 0 0 -0 0 0 0 0 0 0 0 0 -0 -0 0 0 0 0 0 0 0 0 0 0 0 0 0 0
0 0 -0 0 0 0 -0 -0 0 0 0 0 0 0 0 0 0 0 0 0 0 0 0 0 0 0 0 0 0 0 0 0 0 0 0 0 0 0 0 0 0 0 0 0
0 0 0 0 -0 -0 -0 0 -0 -0 -0 0 0 0 0 0 0 0 0 0 0 0 0 0 0 0 0 0 0 0 0 0 -0 0 0 0 0 0 0 0 0 0 0 0
0 0 0 0 0 0 0 0 0 0 0 0 0 0 0 0 0 0 0 0 0 0 0 0 0 0 0 0 0 0 0 0 0 0 0 0 0 0 0 0 0 0 0 0
0 0 0 0 0 0 0 0 0 0 0 0 0 0 0 0 0 0 0 0 0 0 0 0 0 0 0 0 0 0 0 0 0 0 0 0 0 0 0 0 0 0 0 0
0 0 0 0 0 0 0 0 0 0 0 0 0 0 0 0 0 0 -0 -0 -0 -0 -0 0 0 0 0 0 0 0 0 0 0 0 0 0 0 0 0 0 0 0 0 0
0 0 0 0 0 0 0 0 0 0 0 0 -0 -0 -0 -0 -0 -0 -0 -0 -0 -0 -0 -0 -0 0 0 0 0 0 0 0 0 0 0 0 0 0 0 0 0 0 0 0
0 0 0 0 0 0 0 0 0 -0 -0 -0 -0 -0 -0 -0 -0 -0 -0 -0 -0 -0 -0 -0 -0 -0 -0 -0 -0 0 0 0 0 0 0 0 0 0 0 0 0 0 0 0
0 0 0 0 0 0 0 0 0 0 0 -0 -0 0 -0 -0 -0 -0 -0 -0 -0 -0 -0 -0 -0 -0 -0 -0 -0 -0 -0 -0 -0 -0 0 0 0 0 0 0 0 0 0 0
0 0 0 0 0 0 0 0 0 0 0 0 0 0 0 -0 0 0 -0 -0 -0 -0 -0 -0 -0 -0 -0 -0 -0 -0 -0 0 0 0 0 0 0 0 0 0 0 0 0 0
0 0 0 0 0 0 0 0 0 0 0 0 0 0 0 0 0 0 0 0 0 -0 -0 -0 -0 -0 -0 -0 -0 -0 0 -0 0 0 0 0 0 0 0 0 0 0 0 0
0 0 0 0 0 0 0 0 0 0 0 0 0 0 0 0 0 0 0 0 0 0 -0 -0 -0 -0 -0 -0 -0 -0 -0 -0 0 0 0 0 0 0 0 0 0 0 0 0
Wind_Speed_500mb
12 9 20 45 29 32 5 12 14 24 17 9 20 37 37 52 52 51 67 85 105 103 112 106 106 99 94 93 90 89 86 90 94 99 98 95 95 90 90 87 84 79 74 70
3 20 38 0 9 14 19 27 36 35 40 9 36 48 42 30 43 72 75 74 90 101 110 104 101 89 88 93 95 86 91 96 98 101 97 99 97 97 91 90 87 84 80 76
29 17 19 15 8 19 14 15 39 35 17 12 22 37 30 30 59 81 90 95 82 89 102 98 94 90 78 81 87 87 91 95 99 102 100 101 99 97 97 97 93 92 87 82
16 13 22 9 14 22 33 23 31 28 10 16 4 29 13 19 24 19 58 74 71 87 89 91 89 86 79 70 71 75 81 90 97 104 106 105 105 103 102 97 93 93 90 86
18 10 9 13 27 18 20 5 13 5 8 12 11 10 5 14 15 28 36 60 74 65 73 72 66 75 76 63 59 58 68 82 91 101 106 105 104 102 98 93 95 93 90 87
18 3 11 15 11 22 6 2 3 7 2 17 24 16 10 12 15 12 13 39 50 57 63 67 76 83 71 59 58 62 70 76 85 93 105 107 103 105 97 96 93 90 91 90
2 9 8 11 8 3 7 10 7 7 1 26 8 14 36 11 13 16 19 45 44 51 62 80 91 97 86 72 65 69 71 79 83 90 101 104 103 98 95 95 92 89 86 91
3 29 14 10 17 18 18 20 13 15 29 38 7 23 35 18 19 36 38 38 35 41 39 56 66 55 64 67 67 70 73 78 83 83 91 99 101 98 96 97 94 88 86 83
10 21 3 9 6 14 7 12 8 2 1 3 25 34 42 22 17 7 18 35 45 32 44 52 67 61 52 52 54 65 67 70 72 76 89 96 97 99 101 100 95 91 85 83
7 26 13 2 2 4 13 1 4 3 6 18 19 16 33 35 29 24 19 35 34 45 57 54 72 78 56 44 48 47 56 63 67 69 78 90 93 94 99 99 96 93 89 87
8 13 34 7 13 18 4 8 10 6 10 29 35 25 47 51 29 24 18 36 61 76 93 95 67 61 68 45 40 33 37 51 60 65 78 89 92 95 96 99 101 98 96 91
13 9 13 27 13 5 6 15 18 22 21 23 36 42 46 61 51 42 53 69 66 73 75 81 81 79 64 57 36 36 45 49 56 57 73 83 89 93 97 105 106 104 104 100
9 7 13 19 16 5 11 25 26 35 32 43 34 25 25 39 58 83 71 60 54 53 72 75 70 64 59 58 71 72 60 69 72 66 76 84 93 98 95 103 105 102 104 105
23 35 49 46 41 25 15 19 18 36 26 37 41 53 43 45 51 55 85 96 70 43 46 52 52 59 76 81 78 80 70 70 73 80 85 92 95 96 93 97 102 101 98 101
6 10 11 31 27 22 36 43 41 46 49 52 54 54 50 54 51 47 75 57 53 56 60 63 66 52 55 61 63 69 67 68 75 81 83 91 89 95 97 95 101 105 98 99
4 19 28 43 50 43 42 40 49 41 45 41 49 59 47 49 66 63 43 47 54 58 61 64 72 77 76 71 68 68 72 73 70 73 76 87 96 103 99 96 103 100 98 97
12 8 5 37 50 33 28 48 46 41 42 38 28 18 29 34 41 31 47 53 56 59 64 68 73 77 79 78 80 77 69 64 66 71 75 76 84 87 81 87 93 97 97 94
31 24 8 19 24 9 16 16 14 11 24 27 24 24 27 31 46 24 51 62 62 63 65 62 68 86 85 84 78 77 74 71 59 55 61 65 71 77 78 84 90 91 91 92
26 22 10 10 13 27 34 14 13 15 11 20 29 19 30 44 49 33 46 54 54 53 60 55 72 77 78 87 93 85 80 76 66 57 46 46 51 59 70 75 79 83 84 86
10 1 8 8 8 9 4 5 18 21 17 14 14 13 22 37 25 35 63 65 63 55 61 68 74 83 85 76 79 90 84 81 72 61 54 46 38 41 53 63 70 78 81 83
7 6 8 6 6 13 6 18 30 5 14 37 5 11 24 18 25 69 79 72 68 72 72 70 75 78 80 88 83 84 75 78 73 64 58 47 34 36 39 46 57 63 67 72
8 4 6 2 1 15 7 32 4 14 38 33 21 27 32 42 55 59 68 66 70 79 77 79 80 80 84 84 80 79 80 72 69 68 64 54 41 26 30 33 41 53 57 64
11 13 9 15 14 21 57 48 70 48 47 34 34 43 50 53 57 58 62 78 82 79 79 85 87 96 90 87 75 78 81 86 75 73 66 63 50 40 33 42 38 50 53 59
13 32 18 5 34 35 47 59 62 65 43 48 56 64 47 51 62 68 73 83 83 87 85 77 84 99 104 101 99 89 82 72 74 73 73 64 63 58 50 51 50 46 47 52
19 8 15 30 35 51 60 61 53 38 50 58 66 54 63 53 71 64 72 85 89 92 98 97 98 95 109 107 107 96 90 84 82 78 73 70 64 65 67 65 67 63 57 54
30 35 23 31 55 47 52 67 50 53 54 48 50 68 70 60 73 70 83 85 77 85 101 106 112 112 114 109 112 105 98 87 81 81 78 80 73 68 67 71 74 69 72 69
Wind_Direction_500mb
181 137 206 226 207 235 203 238 238 252 261 222 238 259 259 264 277 262 260 265 271 272 277 279 276 269 267 265 256 252 250 246 238 236 233 231 231 232 232 231 232 232 232 232
86 217 226 50 200 218 239 259 264 275 266 224 266 262 264 256 255 261 261 261 264 270 277 283 282 279 267 263 259 252 252 245 241 238 236 233 232 231 233 232 230 231 231 232
220 224 222 206 210 249 223 231 260 261 306 237 281 273 250 248 251 258 264 261 263 265 274 281 284 285 281 268 262 256 254 249 241 238 231 231 231 232 231 230 229 230 230 231
242 238 212 144 212 215 265 227 261 272 328 272 6 295 190 237 235 236 253 268 267 275 277 281 285 282 276 278 273 266 260 252 241 234 231 229 231 230 234 235 233 231 230 231
244 192 160 192 225 158 243 209 243 243 228 319 205 256 214 183 240 246 251 259 272 277 283 284 286 287 291 282 271 265 253 249 245 239 233 229 230 233 236 236 234 234 233 233
248 189 179 222 208 180 110 84 76 57 99 271 207 190 317 165 213 262 247 262 277 288 288 291 295 292 294 289 270 251 247 243 242 237 234 231 230 233 232 232 234 235 234 234
311 214 246 190 239 125 131 96 306 317 7 257 152 212 253 257 219 219 245 284 288 295 309 307 301 298 297 294 266 251 244 241 234 234 232 231 232 233 236 237 235 235 232 234
240 288 188 170 201 191 187 168 172 217 268 276 121 258 273 223 251 252 259 283 297 318 347 341 335 313 302 286 261 249 245 239 236 233 232 231 232 234 235 237 237 237 239 239
197 262 230 216 174 160 179 181 216 359 51 269 267 273 288 248 245 264 263 299 303 303 323 345 350 340 310 292 265 256 250 247 246 241 234 232 232 234 237 238 237 239 241 241
270 293 187 125 126 186 174 290 36 28 197 242 256 262 257 278 276 283 295 286 282 314 319 322 332 333 320 293 273 265 259 258 259 252 244 238 237 239 241 242 241 240 240 241
199 208 266 13 208 204 135 224 206 188 202 253 261 258 272 277 283 285 278 274 298 305 300 304 322 326 329 297 282 270 262 262 263 260 250 242 241 242 245 246 244 241 242 241
168 208 255 263 265 208 166 234 221 238 248 237 253 250 272 283 289 287 282 291 293 294 293 295 307 316 313 304 282 306 294 280 270 260 256 252 247 246 245 246 245 243 244 242
193 239 267 278 269 199 208 231 235 251 267 260 260 265 263 287 293 289 290 294 292 288 295 302 303 303 299 286 281 294 283 280 270 258 259 257 251 248 248 247 247 247 246 245
342 257 252 256 261 283 261 276 236 237 252 265 260 273 270 266 269 282 290 292 303 318 318 310 309 307 305 302 300 302 291 287 279 268 263 260 255 253 250 248 248 250 247 245
43 285 317 304 308 307 312 310 294 280 284 275 277 280 286 279 283 289 300 333 13 8 7 3 2 354 328 326 320 319 312 304 291 281 273 270 267 257 252 250 251 249 248 247
333 276 300 293 284 282 280 272 266 271 276 275 275 277 297 15 4 354 2 6 11 2 354 347 344 352 355 349 340 328 321 314 301 290 282 274 261 256 253 251 247 246 247 245
255 245 250 274 282 295 273 258 268 266 265 304 312 23 21 12 -0 355 23 12 360 350 345 344 341 337 342 342 343 339 337 329 309 291 287 279 270 262 262 255 250 248 246 243
256 263 241 267 301 244 261 36 40 41 50 25 346 28 22 355 348 306 10 355 342 340 332 331 331 331 332 332 335 335 334 333 332 313 289 282 279 274 265 256 252 247 244 242
223 247 257 252 215 269 292 17 19 2 320 23 355 5 355 338 331 313 331 336 325 324 321 320 322 328 326 324 326 330 330 331 335 335 321 301 289 280 271 261 254 248 241 239
94 149 215 359 272 257 135 259 275 275 254 15 3 333 333 345 333 313 325 327 321 321 320 323 326 327 328 329 322 322 325 329 333 337 337 325 309 289 276 265 255 247 241 236
359 345 195 240 254 288 246 326 355 16 294 344 341 308 311 315 293 300 314 317 320 323 329 328 322 321 323 324 323 321 319 317 327 331 327 324 330 311 283 269 257 248 240 236
178 178 240 347 83 289 333 347 113 244 296 277 293 297 294 302 300 305 307 309 313 322 328 326 322 320 320 320 319 315 315 313 309 314 318 314 311 307 318 280 265 249 238 234
261 196 219 189 226 282 298 282 290 280 291 278 284 298 306 300 301 304 304 311 315 319 316 321 319 317 319 315 311 306 306 306 306 302 300 303 296 291 290 294 261 243 236 233
243 241 250 315 268 266 274 281 282 287 262 284 296 303 298 302 302 304 307 309 309 313 314 311 310 312 311 310 306 307 307 305 298 298 297 290 290 279 270 261 259 255 239 232
246 147 227 255 272 279 277 275 282 273 283 292 297 289 300 300 300 300 301 304 305 307 309 310 308 304 303 306 306 305 303 300 294 286 286 287 280 275 269 265 260 251 250 248
243 244 252 260 270 271 273 283 282 286 293 287 293 301 302 299 298 299 298 300 297 298 303 305 305 303 301 302 301 300 300 298 294 287 281 280 279 275 270 264 256 255 253 246
Wind_Speed_850mb
12 9 20 45 29 32 5 12 14 24 17 9 20 37 37 52 52 51 67 85 105 103 112 106 106 99 94 93 90 89 86 90 94 99 98 95 95 90 90 87 84 79 74 70
3 20 38 0 9 14 19 27 36 35 40 9 36 48 42 30 43 72 75 74 90 101 110 104 101 89 88 93 95 86 91 96 98 101 97 99 97 97 91 90 87 84 80 76
29 17 19 15 8 19 14 15 39 35 17 12 22 37 30 30 59 81 90 95 82 89 102 98 94 90 78 81 87 87 91 95 99 102 100 101 99 97 97 97 93 92 87 82
16 13 22 9 14 22 33 23 31 28 10 16 4 29 13 19 24 19 58 74 71 87 89 91 89 86 79 70 71 75 81 90 97 104 106 105 105 103 102 97 93 93 90 86
18 10 9 13 27 18 20 5 13 5 8 12 11 10 5 14 15 28 36 60 74 65 73 72 66 75 76 63 59 58 68 82 91 101 106 105 104 102 98 93 95 93 90 87
18 3 11 15 11 22 6 2 3 7 2 17 24 16 10 12 15 12 13 39 50 57 63 67 76 83 71 59 58 62 70 76 85 93 105 107 103 105 97 96 93 90 91 90
2 9 8 11 8 3 7 10 7 7 1 26 8 14 36 11 13 16 19 45 44 51 62 80 91 97 86 72 65 69 71 79 83 90 101 104 103 98 95 95 92 89 86 91
3 29 14 10 17 18 18 20 13 15 29 38 7 23 35 18 19 36 38 38 35 41 39 56 66 55 64 67 67 70 73 78 83 83 91 99 101 98 96 97 94 88 86 83
10 21 3 9 6 14 7 12 8 2 1 3 25 34 42 22 17 7 18 35 45 32 44 52 67 61 52 52 54 65 67 70 72 76 89 96 97 99 101 100 95 91 85 83
7 26 13 2 2 4 13 1 4 3 6 18 19 16 33 35 29 24 19 35 34 45 57 54 72 78 56 44 48 47 56 63 67 69 78 90 93 94 99 99 96 93 89 87
8 13 34 7 13 18 4 8 10 6 10 29 35 25 47 51 29 24 18 36 61 76 93 95 67 61 68 45 40 33 37 51 60 65 78 89 92 95 96 99 101 98 96 91
13 9 13 27 13 5 6 15 18 22 21 23 36 42 46 61 51 42 53 69 66 73 75 81 81 79 64 57 36 36 45 49 56 57 73 83 89 93 97 105 106 104 104 100
9 7 13 19 16 5 11 25 26 35 32 43 34 25 25 39 58 83 71 60 54 53 72 75 70 64 59 58 71 72 60 69 72 66 76 84 93 98 95 103 105 102 104 105
23 35 49 46 41 25 15 19 18 36 26 37 41 53 43 45 51 55 85 96 70 43 46 52 52 59 76 81 78 80 70 70 73 80 85 92 95 96 93 97 102 101 98 101
6 10 11 31 27 22 36 43 41 46 49 52 54 54 50 54 51 47 75 57 53 56 60 63 66 52 55 61 63 69 67 68 75 81 83 91 89 95 97 95 101 105 98 99
4 19 28 43 50 43 42 40 49 41 45 41 49 59 47 49 66 63 43 47 54 58 61 64 72 77 76 71 68 68 72 73 70 73 76 87 96 103 99 96 103 100 98 97
12 8 5 37 50 33 28 48 46 41 42 38 28 18 29 34 41 31 47 53 56 59 64 68 73 77 79 78 80 77 69 64 66 71 75 76 84 87 81 87 93 97 97 94
31 24 8 19 24 9 16 16 14 11 24 27 24 24 27 31 46 24 51 62 62 63 65 62 68 86 85 84 78 77 74 71 59 55 61 65 71 77 78 84 90 91 91 92
26 22 10 10 13 27 34 14 13 15 11 20 29 19 30 44 49 33 46 54 54 53 60 55 72 77 78 87 93 85 80 76 66 57 46 46 51 59 70 75 79 83 84 86
10 1 8 8 8 9 4 5 18 21 17 14 14 13 22 37 25 35 63 65 63 55 61 68 74 83 85 76 79 90 84 81 72 61 54 46 38 41 53 63 70 78 81 83
7 6 8 6 6 13 6 18 30 5 14 37 5 11 24 18 25 69 79 72 68 72 72 70 75 78 80 88 83 84 75 78 73 64 58 47 34 36 39 46 57 63 67 72
8 4 6 2 1 15 7 32 4 14 38 33 21 27 32 42 55 59 68 66 70 79 77 79 80 80 84 84 80 79 80 72 69 68 64 54 41 26 30 33 41 53 57 64
11 13 9 15 14 21 57 48 70 48 47 34 34 43 50 53 57 58 62 78 82 79 79 85 87 96 90 87 75 78 81 86 75 73 66 63 50 40 33 42 38 50 53 59
13 32 18 5 34 35 47 59 62 65 43 48 56 64 47 51 62 68 73 83 83 87 85 77 84 99 104 101 99 89 82 72 74 73 73 64 63 58 50 51 50 46 47 52
19 8 15 30 35 51 60 61 53 38 50 58 66 54 63 53 71 64 72 85 89 92 98 97 98 95 109 107 107 96 90 84 82 78 73 70 64 65 67 65 67 63 57 54
30 35 23 31 55 47 52 67 50 53 54 48 50 68 70 60 73 70 83 85 77 85 101 106 112 112 114 109 112 105 98 87 81 81 78 80 73 68 67 71 74 69 72 69
Wind_Direction_850mb
181 137 206 226 207 235 203 238 238 252 261 222 238 259 259 264 277 262 260 265 271 272 277 279 276 269 267 265 256 252 250 246 238 236 233 231 231 232 232 231 232 232 232 232
86 217 226 50 200 218 239 259 264 275 266 224 266 262 264 256 255 261 261 261 264 270 277 283 282 279 267 263 259 252 252 245 241 238 236 233 232 231 233 232 230 231 231 232
220 224 222 206 210 249 223 231 260 261 306 237 281 273 250 248 251 258 264 261 263 265 274 281 284 285 281 268 262 256 254 249 241 238 231 231 231 232 231 230 229 230 230 231
242 238 212 144 212 215 265 227 261 272 328 272 6 295 190 237 235 236 253 268 267 275 277 281 285 282 276 278 273 266 260 252 241 234 231 229 231 230 234 235 233 231 230 231
244 192 160 192 225 158 243 209 243 243 228 319 205 256 214 183 240 246 251 259 272 277 283 284 286 287 291 282 271 265 253 249 245 239 233 229 230 233 236 236 234 234 233 233
248 189 179 222 208 180 110 84 76 57 99 271 207 190 317 165 213 262 247 262 277 288 288 291 295 292 294 289 270 251 247 243 242 237 234 231 230 233 232 232 234 235 234 234
311 214 246 190 239 125 131 96 306 317 7 257 152 212 253 257 219 219 245 284 288 295 309 307 301 298 297 294 266 251 244 241 234 234 232 231 232 233 236 237 235 235 232 234
240 288 188 170 201 191 187 168 172 217 268 276 121 258 273 223 251 252 259 283 297 318 347 341 335 313 302 286 261 249 245 239 236 233 232 231 232 234 235 237 237 237 239 239
197 262 230 216 174 160 179 181 216 359 51 269 267 273 288 248 245 264 263 299 303 303 323 345 350 340 310 292 265 256 250 247 246 241 234 232 232 234 237 238 237 239 241 241
270 293 187 125 126 186 174 290 36 28 197 242 256 262 257 278 276 283 295 286 282 314 319 322 332 333 320 293 273 265 259 258 259 252 244 238 237 239 241 242 241 240 240 241
199 208 266 13 208 204 135 224 206 188 202 253 261 258 272 277 283 285 278 274 298 305 300 304 322 326 329 297 282 270 262 262 263 260 250 242 241 242 245 246 244 241 242 241
168 208 255 263 265 208 166 234 221 238 248 237 253 250 272 283 289 287 282 291 293 294 293 295 307 316 313 304 282 306 294 280 270 260 256 252 247 246 245 246 245 243 244 242
193 239 267 278 269 199 208 231 235 251 267 260 260 265 263 287 293 289 290 294 292 288 295 302 303 303 299 286 281 294 283 280 270 258 259 257 251 248 248 247 247 247 246 245
342 257 252 256 261 283 261 276 236 237 252 265 260 273 270 266 269 282 290 292 303 318 318 310 309 307 305 302 300 302 291 287 279 268 263 260 255 253 250 248 248 250 247 245
43 285 317 304 308 307 312 310 294 280 284 275 277 280 286 279 283 289 300 333 13 8 7 3 2 354 328 326 320 319 312 304 291 281 273 270 267 257 252 250 251 249 248 247
333 276 300 293 284 282 280 272 266 271 276 275 275 277 297 15 4 354 2 6 11 2 354 347 344 352 355 349 340 328 321 314 301 290 282 274 261 256 253 251 247 246 247 245
255 245 250 274 282 295 273 258 268 266 265 304 312 23 21 12 -0 355 23 12 360 350 345 344 341 337 342 342 343 339 337 329 309 291 287 279 270 262 262 255 250 248 246 243
256 263 241 267 301 244 261 36 40 41 50 25 346 28 22 355 348 306 10 355 342 340 332 331 331 331 332 332 335 335 334 333 332 313 289 282 279 274 265 256 252 247 244 242
223 247 257 252 215 269 292 17 19 2 320 23 355 5 355 338 331 313 331 336 325 324 321 320 322 328 326 324 326 330 330 331 335 335 321 301 289 280 271 261 254 248 241 239
94 149 215 359 272 257 135 259 275 275 254 15 3 333 333 345 333 313 325 327 321 321 320 323 326 327 328 329 322 322 325 329 333 337 337 325 309 289 276 265 255 247 241 236
359 345 195 240 254 288 246 326 355 16 294 344 341 308 311 315 293 300 314 317 320 323 329 328 322 321 323 324 323 321 319 317 327 331 327 324 330 311 283 269 257 248 240 236
178 178 240 347 83 289 333 347 113 244 296 277 293 297 294 302 300 305 307 309 313 322 328 326 322 320 320 320 319 315 315 313 309 314 318 314 311 307 318 280 265 249 238 234
261 196 219 189 226 282 298 282 290 280 291 278 284 298 306 300 301 304 304 311 315 319 316 321 319 317 319 315 311 306 306 306 306 302 300 303 296 291 290 294 261 243 236 233
243 241 250 315 268 266 274 281 282 287 262 284 296 303 298 302 302 304 307 309 309 313 314 311 310 312 311 310 306 307 307 305 298 298 297 290 290 279 270 261 259 255 239 232
246 147 227 255 272 279 277 275 282 273 283 292 297 289 300 300 300 300 301 304 305 307 309 310 308 304 303 306 306 305 303 300 294 286 286 287 280 275 269 265 260 251 250 248
243 244 252 260 270 271 273 283 282 286 293 287 293 301 302 299 298 299 298 300 297 298 303 305 305 303 301 302 301 300 300 298 294 287 281 280 279 275 270 264 256 255 253 246